Location: Seven Kings
(51.5667°N, 0.1000°E)
Time: 11:55:39
(UTC+00:00)

Cosmos 1709 Rocket - Pass Details

Date: 29 October 2020
Orbit: 949 x 1001 km, 82.9° (Epoch: 24 November)

Event Time Altitude Azimuth Distance (km) Brightness Sun altitude
Rises 18:34:56 0° 350° (N) 3,729 7.2 -18.8°
Reaches altitude 10° 18:37:29 10° 353° (N) 2,780 6.5 -19.2°
Maximum altitude 18:43:53 71° 78° (ENE) 1,060 3.9 -20.1°
Drops below altitude 10° 18:50:14 10° 162° (SSE) 2,765 6.1 -21.1°
Sets 18:52:46 0° 165° (SSE) 3,708 6.8 -21.5°
